Starlink 30866

operational
NORAD ID: 58237 Int'l Des: 2023-171 Owner: SPXS Country: US Constellation: starlink
LEOCIRCULAR

Über Starlink 30866

Beschreibung wird geladen...

Live-Position

3D-Globus wird geladen...

Nächste Überflüge

Höhenverlauf

Altitude vs Time

uPlot chart will show altitude changes over time

Zweizeiliger Elementsatz

1 58237U 23171H 25258.43258810 -.00001867 00000-0 -12322-3 0 9999
2 58237 43.0035 158.1730 0000293 314.2543 45.8275 15.02529954103369
Epoch: 15. Sept. 2025 • Age: 18 hours

Aktueller Status

Höhe 558.0 km
Geschwindigkeit 7.59 km/s
Subsatellitenpunkt 11.54°N, 111.29°E
Startdatum 8. Nov. 2023
Alter 1.8 years
Typ internet

Technische Details

Klassifizierung Payload
Masse 730.00 kg
Trockenmasse 700.00 kg
Gesamtmasse 730.00 kg
Länge 0.30 m
Durchmesser 4.10 m
Spannweite 29.00 m
Form Box + pan
Hersteller SPXS
Bus-Typ Starlink V2M
Phasenstatus In Orbit
Besitzer/Staat SPXS/US

Große Konstellationen

Loading constellations...